Location: Melita
(38.4566°N, 122.6369°W)
Time: 21:17:27
(UTC+00:00)

Cosmos 158 Rocket - Pass Details

Date: 24 January 2020
Orbit: 698 x 794 km, 74.0° (Epoch: 25 February)

Event Time Altitude Azimuth Distance (km) Brightness Sun altitude
Rises 13:25:00 0° 186° (S) 3,064 7.1 -22.9°
Reaches altitude 10° 13:27:20 10° 182° (S) 2,150 6.4 -22.4°
Maximum altitude 13:32:04 57° 104° (ESE) 820 4.4 -21.5°
Drops below altitude 10° 13:36:52 10° 27° (NNE) 2,185 6.6 -20.6°
Sets 13:39:15 0° 23° (NNE) 3,118 7.3 -20.1°
